Wind_Speed
6 6 6 6 6 6 6 7 7 8 8 8 8 8 8 7 7 6 6 5 5 6 7 7 8 8 8 9 9 10 11 13 13 14 16 14 11 12 10 8 7 5 4 3 2 2 2 2 2 4 5 7 6 7 8 6 5 3 2 3 4 5 5 1 3 3 2 2 2 4 6 4 3 6 10 8 10 12 9 12 13 13 15 17 18 17 16 17
7 7 7 7 6 6 6 7 7 7 8 8 8 9 9 9 9 8 8 7 6 6 6 7 8 8 8 9 9 10 12 14 15 18 20 17 14 13 11 10 9 7 5 4 2 1 2 4 4 6 7 8 7 7 8 6 6 6 3 2 5 4 3 2 3 4 4 4 4 2 5 5 5 5 8 5 7 13 11 13 14 15 16 19 23 22 22 23
9 8 8 8 8 8 8 8 8 8 8 9 9 9 9 9 9 9 9 9 8 8 7 7 7 8 8 8 9 10 11 12 16 21 21 19 18 15 13 12 11 9 7 6 4 2 5 7 6 8 9 9 9 9 8 6 6 8 5 3 6 3 5 7 5 3 3 4 6 7 4 6 8 5 7 5 6 10 11 14 14 18 23 24 26 25 26 27
10 10 10 9 9 9 9 9 9 9 9 10 10 10 11 11 11 11 10 10 10 10 9 9 8 8 8 8 9 9 10 11 13 18 16 15 17 17 16 14 12 11 9 8 6 4 5 5 5 8 10 10 12 11 7 9 7 6 6 4 6 2 3 5 3 1 1 2 5 9 5 6 10 8 8 7 5 7 13 19 20 23 27 26 27 28 28 29
12 12 11 11 11 10 10 10 11 11 11 11 11 11 12 12 12 12 12 12 11 11 11 11 10 9 8 8 8 7 7 6 5 6 6 6 9 14 17 16 13 12 11 9 7 5 5 4 4 8 9 9 11 9 7 14 12 3 7 10 14 10 4 2 1 3 4 4 5 7 7 7 9 10 14 11 7 10 12 15 20 25 26 23 26 28 28 29
13 13 12 12 12 11 12 11 12 12 12 12 12 12 12 13 13 13 13 13 13 13 12 12 12 11 9 8 8 7 5 3 4 4 6 7 9 11 15 17 14 12 11 10 9 6 5 4 5 8 9 8 8 8 10 15 13 4 8 13 18 15 8 4 4 6 6 5 6 6 7 9 9 10 15 17 20 23 17 11 14 18 21 21 24 27 29 29
13 13 13 13 12 12 12 12 12 12 12 12 13 13 13 13 14 14 14 14 14 14 14 13 13 12 11 9 9 9 10 13 14 15 16 16 14 11 13 16 15 13 12 11 9 6 5 6 9 10 9 7 8 11 9 10 11 6 6 10 16 15 10 9 7 8 8 7 9 8 7 9 10 9 12 21 29 32 26 20 19 18 17 18 22 26 28 28
14 14 14 14 13 13 13 13 14 13 13 13 13 14 14 14 14 15 15 15 15 15 15 15 15 13 11 9 9 9 13 18 19 18 18 18 15 12 12 16 15 14 12 11 9 6 7 8 11 12 8 7 6 6 2 5 8 8 8 11 13 11 10 11 10 11 11 11 11 9 9 12 15 12 14 27 32 29 26 25 25 26 23 20 23 25 26 28
16 16 16 15 15 15 15 14 15 15 15 15 14 14 15 15 15 15 16 16 16 16 16 16 16 14 12 10 7 7 12 14 15 16 15 15 14 13 14 16 16 15 13 11 10 8 9 9 10 8 5 7 9 8 3 3 4 5 7 11 11 10 11 12 12 13 12 13 11 8 11 15 18 13 17 34 36 30 28 25 25 27 27 26 26 27 28 30
18 18 18 18 17 17 17 16 16 16 16 16 16 16 16 16 16 16 17 17 18 18 18 17 17 15 12 9 4 5 10 11 11 13 13 13 13 13 15 17 17 16 14 12 11 10 10 9 9 9 9 9 10 10 7 5 4 5 8 11 13 17 18 16 14 14 14 13 12 10 9 14 15 7 13 29 25 22 27 28 28 27 28 30 28 29 31 32
20 20 20 20 20 19 19 18 18 18 18 18 18 18 18 18 18 17 17 18 18 19 19 19 18 14 12 9 7 9 14 15 14 15 15 15 13 13 14 16 17 17 15 12 12 12 12 12 12 10 8 5 6 9 8 7 8 9 8 10 14 18 21 20 17 18 14 9 15 14 7 12 9 5 19 31 18 12 19 24 27 28 30 30 28 29 31 33
22 22 22 22 22 21 21 21 20 20 20 20 19 19 19 19 19 19 19 19 19 19 20 20 18 15 12 10 14 17 19 19 18 18 18 17 15 14 14 14 16 17 17 14 13 13 13 13 11 9 8 6 6 7 5 5 7 8 5 6 12 13 15 19 19 20 15 6 13 11 4 10 9 13 32 40 27 17 16 19 23 27 30 30 30 29 30 33
24 24 24 24 24 23 23 23 23 22 22 22 21 20 20 21 21 20 20 20 20 20 20 20 18 15 10 12 19 21 19 19 19 19 19 19 18 16 15 14 14 16 16 16 15 14 14 12 10 10 11 9 6 6 6 7 6 6 5 4 8 8 9 16 19 19 14 7 14 11 2 9 10 22 35 34 27 23 20 21 22 24 28 30 30 30 31 32
27 27 26 26 26 26 26 25 25 25 25 24 24 23 22 23 22 22 22 21 21 20 20 19 17 13 9 14 22 21 19 20 20 21 21 20 19 17 16 15 14 15 15 16 17 16 14 12 10 10 12 12 10 8 9 7 4 4 6 5 5 4 6 10 10 15 10 8 17 11 4 10 8 18 28 26 24 23 23 25 24 25 28 30 31 32 33 34
28 29 29 29 29 29 29 28 28 27 27 27 26 25 25 25 25 24 23 23 22 21 21 19 16 12 10 16 24 20 18 19 20 22 21 19 18 15 14 14 14 14 15 15 15 15 13 11 10 8 8 11 11 6 5 4 4 3 3 5 4 4 7 7 3 15 11 6 16 11 3 10 12 12 16 21 24 24 24 24 23 26 28 30 32 32 34 35
27 28 29 30 31 31 31 31 31 30 30 30 28 27 27 27 27 26 25 25 24 23 21 17 14 11 8 13 20 19 18 18 19 21 19 17 15 12 13 13 13 13 13 14 13 12 11 9 9 9 7 5 5 4 3 4 5 4 5 5 6 6 7 5 2 11 12 6 11 12 5 7 8 6 5 11 21 23 21 21 22 25 27 29 31 32 34 35
25 26 27 28 29 30 31 31 32 32 32 32 32 30 29 28 28 28 27 26 24 23 20 13 10 9 10 14 18 19 20 18 16 17 17 15 13 13 14 12 10 11 11 11 12 11 10 8 6 6 8 5 4 4 3 4 6 4 5 6 7 8 8 5 2 6 10 7 8 12 9 10 9 7 5 8 16 19 19 20 23 24 26 30 31 31 33 35
25 25 26 26 27 28 28 29 29 30 31 32 32 31 30 29 29 28 28 27 22 16 14 11 8 4 9 16 17 16 17 14 13 13 12 12 12 12 12 9 7 8 7 7 10 10 9 8 6 2 4 5 4 5 5 7 8 6 6 5 6 7 8 8 4 4 10 7 7 9 10 15 14 13 15 14 16 19 20 22 27 29 30 33 33 32 34 35
25 25 26 26 26 27 27 28 27 27 28 29 29 28 29 27 26 25 24 22 15 8 7 10 12 6 5 9 11 12 14 14 13 12 11 10 11 12 13 10 8 8 7 4 6 10 11 5 5 4 5 7 8 9 10 12 11 9 10 7 7 7 7 10 8 5 11 7 8 11 11 14 15 14 16 21 23 22 24 26 28 30 32 34 33 33 34 36
24 25 26 26 27 27 27 28 27 27 28 27 27 25 21 17 14 12 12 17 19 17 17 15 15 15 13 11 12 13 14 14 13 13 13 10 9 11 14 12 7 8 8 4 4 10 11 5 4 8 10 10 10 12 14 14 13 12 11 9 9 8 8 13 10 5 10 6 8 13 13 13 15 13 13 20 23 20 20 22 25 28 32 34 33 33 35 37
23 24 25 26 27 27 27 27 27 27 26 26 26 20 11 8 7 6 7 15 22 24 25 23 19 21 22 19 18 18 17 14 14 16 15 11 10 8 11 12 6 6 9 9 6 5 7 6 9 14 16 12 10 11 12 12 12 12 9 8 8 7 9 14 8 3 7 5 6 10 11 13 14 13 13 17 16 15 19 20 23 30 33 35 33 33 36 34
21 22 23 24 25 26 26 26 26 26 25 23 22 15 9 11 11 12 12 14 22 27 25 25 25 27 27 25 25 26 21 14 15 20 19 14 15 11 11 13 7 6 7 9 7 3 5 9 13 17 14 10 11 11 9 10 10 9 6 5 7 7 9 11 4 2 3 3 5 7 9 11 12 14 14 15 15 19 28 29 30 33 33 34 35 34 33 29
20 20 21 21 22 23 23 23 23 23 22 20 19 15 13 13 11 13 12 10 18 26 26 27 29 30 31 29 30 29 23 19 18 21 23 19 19 17 14 11 8 8 7 8 9 6 7 9 14 18 14 11 13 10 7 8 7 7 6 5 8 8 8 7 3 3 4 5 6 6 8 9 11 14 15 20 26 27 33 37 37 36 34 37 41 36 30 25
19 20 20 20 20 20 19 20 19 17 17 16 16 14 12 12 9 10 11 9 12 18 27 32 30 32 33 29 29 28 26 26 21 18 25 25 21 17 14 12 9 8 8 11 13 14 12 8 8 11 11 12 12 10 7 7 7 8 7 8 10 11 11 9 4 3 4 6 4 3 8 8 10 14 13 16 22 22 26 31 31 35 37 40 42 37 30 25
19 19 20 20 19 19 19 17 14 12 12 11 11 9 8 7 6 7 8 8 8 9 16 22 23 28 31 28 28 25 20 22 21 19 25 28 24 13 9 13 11 8 11 13 13 14 13 11 9 7 5 8 8 7 7 6 8 8 7 11 15 14 12 11 8 4 3 5 3 1 7 7 7 12 12 8 8 11 15 18 20 29 36 37 36 34 29 25
19 19 20 20 20 20 17 11 10 12 10 8 9 6 5 3 3 5 6 4 7 3 6 11 13 14 17 22 27 20 8 11 20 24 23 25 27 17 6 9 9 9 9 9 9 8 6 6 8 8 7 7 7 7 7 7 8 8 4 7 11 11 10 9 7 3 2 5 3 4 2 8 6 8 10 7 6 9 11 10 15 25 31 33 33 29 25 24
19 19 20 20 20 20 16 11 12 13 8 8 8 4 3 3 3 3 4 4 8 4 8 8 8 7 8 13 22 17 1 4 13 18 21 23 25 19 9 7 8 8 5 1 5 5 4 5 5 6 7 6 7 8 7 8 7 6 1 0 1 3 5 5 3 4 4 4 4 4 4 7 12 8 8 9 8 9 10 9 11 20 27 32 34 30 22 21
19 19 20 21 20 19 17 15 13 11 8 8 7 4 4 6 4 1 1 5 4 6 6 5 6 6 7 11 21 16 1 3 6 9 21 24 22 16 11 11 9 7 6 5 7 3 2 6 7 8 7 6 7 6 4 8 7 4 1 2 3 2 1 1 2 4 3 5 5 5 7 5 13 7 7 9 10 10 11 12 12 16 24 31 35 31 21 19
20 19 20 21 21 19 17 15 11 10 11 8 5 6 7 8 3 2 1 6 1 5 3 6 6 5 7 10 15 13 2 2 1 5 15 18 19 13 5 8 9 8 7 9 11 5 1 3 4 5 6 6 5 1 2 3 5 4 2 3 5 3 1 2 2 2 2 6 7 6 8 5 13 10 5 7 9 10 10 11 12 15 23 30 32 28 19 18
21 21 20 20 21 19 17 15 12 11 11 7 5 8 9 7 2 0 6 6 2 3 3 5 4 6 9 6 7 10 5 1 3 6 8 8 15 12 3 3 4 6 5 6 8 7 2 4 2 2 6 4 4 4 3 2 2 2 2 2 2 0 0 1 2 2 1 9 9 9 13 9 9 7 5 8 9 11 10 9 10 13 21 28 27 24 20 19
23 23 22 22 21 19 17 16 15 13 10 6 5 10 8 3 0 4 9 2 2 1 4 4 3 6 11 7 4 7 6 3 5 8 5 3 8 9 3 2 1 1 4 5 7 7 4 2 0 2 4 6 6 3 1 2 1 2 3 2 1 3 2 3 1 3 2 10 6 10 16 13 10 5 2 6 9 12 11 10 11 11 17 25 26 26 24 22
24 25 25 24 22 21 18 16 14 12 8 4 8 11 6 1 4 9 6 3 1 4 4 4 6 6 9 8 4 5 5 4 6 7 5 4 5 6 6 5 4 2 3 4 5 5 6 9 7 2 2 8 6 1 1 3 1 3 4 4 1 3 2 1 2 2 5 10 4 10 13 11 14 9 2 4 6 10 11 10 14 15 16 22 24 24 25 23
26 27 27 26 25 24 22 19 14 10 6 4 10 8 2 2 8 9 6 3 2 2 3 3 6 7 6 5 4 5 4 3 7 7 5 5 5 6 7 8 5 3 4 4 3 3 3 6 6 4 2 10 11 5 4 2 4 7 6 6 5 3 3 3 4 3 6 9 5 7 9 5 9 6 9 12 9 11 14 16 20 19 17 20 20 20 23 23
26 28 30 30 29 27 24 21 16 10 6 7 8 3 2 7 8 2 5 8 5 1 1 2 5 7 6 5 4 6 4 3 7 7 5 6 4 4 6 9 11 7 3 2 3 3 3 7 7 9 3 12 15 13 12 4 5 9 6 5 6 4 3 4 5 6 6 6 4 3 4 4 3 2 12 17 14 15 19 23 26 21 19 22 18 17 21 22
25 26 30 32 31 28 25 23 19 12 9 10 5 2 6 10 7 2 2 5 5 5 2 2 3 6 6 5 3 5 6 5 6 7 5 6 6 5 6 8 13 10 3 3 3 3 5 9 7 8 3 12 13 12 10 5 1 5 5 4 5 4 5 5 6 7 3 4 6 4 4 6 3 5 10 12 13 16 17 22 22 17 21 25 17 17 20 21
22 22 27 32 34 31 27 25 22 16 12 11 5 5 10 9 4 1 3 2 4 5 2 1 2 4 5 4 3 5 6 3 5 6 4 7 7 7 6 5 12 14 9 7 3 3 5 6 2 4 2 5 4 3 4 3 1 3 4 5 5 3 5 5 7 6 2 6 9 6 7 8 6 10 12 11 12 11 11 15 14 15 25 26 18 20 22 22
18 19 24 29 32 32 30 27 23 18 14 10 5 7 8 7 7 5 5 7 9 6 1 3 3 4 5 4 4 7 6 3 5 5 3 4 6 9 9 7 12 18 16 13 5 3 6 6 2 3 1 1 1 4 2 1 2 5 3 5 1 3 1 3 2 3 3 7 9 8 10 10 8 8 6 10 14 13 12 13 12 16 24 21 18 23 26 25
19 21 25 29 31 30 29 27 25 20 14 8 6 10 6 6 10 10 10 11 12 9 4 5 4 5 6 6 4 6 7 5 5 5 4 4 5 9 10 8 11 18 22 19 7 4 5 6 5 1 0 1 2 2 1 3 2 5 3 2 2 1 1 3 3 2 5 7 8 11 14 12 12 11 5 6 14 15 14 14 14 16 18 15 18 25 26 25
18 17 21 28 29 27 28 28 26 22 13 5 7 8 6 7 13 18 19 16 12 8 6 6 5 4 6 8 7 4 7 8 7 5 5 5 5 8 11 8 9 14 22 20 10 5 3 4 5 1 3 2 2 1 3 1 1 1 3 4 1 2 3 4 4 3 5 7 8 12 15 12 9 9 8 9 13 15 14 13 14 15 16 18 21 24 25 23
14 10 12 21 19 18 25 27 24 18 7 3 7 8 7 6 10 18 22 15 6 3 4 5 6 5 6 7 10 6 5 7 7 5 5 5 5 5 8 9 7 9 16 16 11 6 2 4 6 1 4 2 2 4 8 8 6 4 2 3 3 2 1 1 3 3 5 6 6 7 13 12 3 1 6 9 10 11 11 11 11 12 18 24 24 24 24 21
13 7 9 17 14 13 23 22 15 9 3 2 5 8 11 9 6 13 19 13 6 7 7 5 6 7 6 7 9 9 5 5 5 5 4 5 6 4 4 8 7 4 6 6 7 6 3 4 7 2 0 5 7 7 11 13 11 8 8 9 9 7 4 3 6 6 4 4 6 5 12 15 4 5 4 7 9 10 10 11 10 12 19 23 21 21 21 21
13 7 9 17 14 17 23 15 6 6 4 6 10 9 10 11 9 14 19 16 11 8 7 7 10 11 9 9 11 11 9 8 9 7 5 5 6 3 2 2 4 3 4 2 4 5 3 2 4 6 6 8 9 5 5 6 4 3 5 7 8 7 7 8 9 7 4 4 6 6 12 16 4 7 4 3 7 9 12 13 9 12 18 18 16 18 19 21
13 10 11 16 17 22 22 8 4 8 4 7 12 11 12 11 7 10 14 14 11 7 6 7 10 13 12 11 13 13 12 10 11 12 12 10 8 9 12 13 9 2 1 2 2 1 2 2 4 7 5 5 7 4 4 4 2 3 4 4 6 7 9 10 7 4 4 6 7 8 12 15 5 6 4 2 3 2 6 10 9 10 14 15 16 18 20 23
15 16 15 16 20 24 18 5 4 8 7 9 9 10 15 13 10 12 10 10 9 5 5 8 10 12 11 9 10 11 11 10 10 13 14 11 12 18 22 19 12 4 2 1 1 1 1 2 4 6 6 5 6 6 5 4 2 3 5 5 7 8 9 9 4 2 5 9 13 13 12 12 6 4 6 6 5 3 4 9 12 12 14 16 19 21 23 25
12 13 15 21 30 33 23 14 12 9 9 13 11 11 14 11 15 25 21 15 15 11 7 7 8 9 8 7 9 11 12 10 8 7 8 7 10 18 24 24 17 9 4 2 3 4 3 3 4 6 8 7 8 9 6 2 0 1 4 7 9 10 10 9 6 5 8 12 16 15 11 13 13 8 6 7 8 8 8 11 15 17 20 22 21 21 24 27
7 5 7 14 30 37 29 26 24 14 10 13 9 10 16 12 15 29 29 19 19 21 15 7 5 6 7 9 10 12 14 13 10 6 5 7 7 8 16 23 20 15 9 2 3 3 2 2 6 10 12 11 11 12 8 4 3 3 6 9 10 10 11 9 7 8 10 12 14 13 13 18 20 19 19 18 16 15 15 13 11 15 21 21 19 21 26 30
7 4 3 5 13 21 20 20 20 12 10 15 8 7 17 18 12 18 21 17 20 22 16 9 8 9 9 13 13 13 15 14 12 12 12 12 11 8 11 14 12 10 8 4 4 4 3 3 8 12 15 15 15 17 17 15 15 14 12 11 11 11 12 11 10 13 13 13 13 12 15 20 20 21 26 28 23 19 17 16 14 17 22 24 23 24 26 28
8 7 8 6 3 6 9 13 16 12 11 14 9 7 15 18 14 12 14 16 20 18 10 8 14 18 18 17 13 12 13 11 11 13 14 15 14 12 11 10 10 12 9 4 4 5 3 6 10 12 16 16 15 17 18 19 20 20 18 18 17 14 12 12 15 19 18 16 14 14 19 24 22 21 25 28 23 16 15 20 24 25 29 31 26 22 25 26
11 11 12 11 6 3 6 10 11 11 11 11 8 9 13 15 16 15 12 10 12 14 13 12 15 20 23 22 16 12 11 11 12 13 14 15 15 12 8 8 10 11 9 5 3 4 4 5 10 14 16 16 17 18 18 18 19 20 20 20 20 19 17 17 20 22 22 21 20 22 26 27 23 21 23 26 26 23 24 30 33 34 38 38 30 25 29 31
11 9 10 11 10 10 14 13 7 6 8 9 7 8 12 15 17 15 12 12 10 10 15 19 20 20 21 21 19 17 16 16 18 17 16 14 11 8 7 8 7 5 6 6 4 4 6 7 10 12 12 14 20 22 21 21 21 22 23 21 20 21 22 23 24 22 19 20 22 25 24 21 20 23 24 26 30 31 31 32 33 37 42 40 32 28 30 31
15 14 13 11 7 8 12 11 6 5 5 6 6 7 10 14 16 14 13 17 19 14 12 17 21 19 17 19 20 20 21 23 24 26 24 18 14 12 9 7 9 6 4 6 5 4 6 6 7 8 9 11 17 22 24 24 22 22 23 22 23 24 23 23 23 20 19 20 21 21 18 16 19 22 20 21 24 26 26 26 28 35 42 39 30 26 27 29
16 17 16 12 6 6 8 7 7 8 7 6 8 9 9 11 12 12 12 13 19 22 19 18 17 14 14 17 20 23 28 31 34 38 38 33 29 24 14 9 12 10 5 5 4 4 6 6 5 7 8 9 15 20 21 18 15 15 17 24 30 29 25 23 22 24 24 21 18 16 16 17 18 17 18 21 24 24 23 25 28 32 38 38 30 22 23 29
Wind_Direction
329 333 336 341 345 349 350 350 352 353 354 355 356 359 360 3 2 0 358 351 339 329 326 328 324 319 312 302 295 288 282 277 275 274 268 261 255 259 262 258 258 262 273 273 269 296 279 285 237 206 221 243 242 227 236 235 211 207 187 219 238 245 242 280 333 6 6 321 83 172 188 221 229 186 214 235 233 232 239 238 231 233 235 238 242 240 241 244
317 319 322 328 330 332 335 337 340 341 344 345 349 351 352 356 357 359 357 354 349 335 326 321 318 316 315 307 300 295 288 283 280 272 265 260 255 255 255 249 248 251 264 263 260 291 262 276 249 213 216 237 237 216 228 227 197 212 233 238 243 260 270 298 346 1 356 329 329 251 194 228 251 188 198 225 228 221 231 240 231 234 236 237 241 239 242 245
308 311 314 317 319 323 325 326 330 332 335 336 339 342 345 347 349 353 354 354 352 346 339 328 318 311 310 308 304 300 297 292 281 273 267 261 255 250 251 248 244 246 254 259 269 264 243 254 245 223 222 236 233 211 216 212 198 222 228 261 253 270 325 316 340 357 335 326 314 297 235 218 246 215 182 211 243 223 223 229 219 226 231 233 238 238 239 243
305 307 309 312 314 316 318 321 324 327 332 333 336 337 339 341 342 345 347 350 351 348 346 338 330 317 309 307 305 304 306 300 277 275 279 269 258 249 247 246 243 244 247 253 263 259 253 252 237 231 229 243 238 212 202 202 198 217 204 230 265 280 330 314 350 3 275 299 290 292 279 232 244 233 204 211 251 244 233 231 223 229 238 235 233 238 240 242
304 306 307 310 311 312 314 317 320 324 329 330 333 334 336 338 338 341 342 345 346 347 347 342 338 330 318 306 300 301 309 309 272 283 313 298 270 253 244 243 242 242 243 247 253 257 277 272 242 236 232 253 246 214 215 215 207 238 235 244 264 269 282 307 329 226 237 258 267 277 270 249 245 232 221 213 224 243 236 237 234 235 244 241 234 237 240 242
301 303 304 307 308 311 311 313 317 320 324 327 329 330 333 334 335 338 339 341 342 344 345 342 340 336 329 312 297 287 270 266 273 287 312 318 306 271 245 240 240 241 242 242 247 255 275 261 231 230 230 250 249 237 240 215 200 233 253 249 264 268 269 282 266 240 246 248 244 254 261 254 247 239 231 223 232 245 243 242 248 240 239 242 240 238 236 240
297 299 301 303 304 307 308 311 313 315 318 321 323 325 327 330 332 334 335 338 338 339 341 339 337 333 329 312 294 282 254 256 275 281 287 295 299 284 252 240 238 240 241 241 244 252 266 248 233 237 240 245 252 256 242 189 183 225 264 264 276 279 265 263 260 247 247 242 242 253 270 257 239 245 245 238 242 250 252 251 254 252 241 234 236 236 237 242
292 294 296 297 299 301 303 306 307 310 312 313 317 319 321 323 325 328 329 331 332 334 335 334 335 333 328 310 299 290 263 264 279 285 289 291 288 279 258 243 239 241 242 242 240 241 257 257 249 250 251 252 278 301 249 167 193 220 249 259 268 274 263 262 255 247 247 242 244 252 260 249 242 252 261 254 252 253 254 253 251 252 251 241 238 239 239 242
290 290 291 292 294 295 297 300 301 303 305 307 311 312 314 316 318 321 322 324 325 326 327 329 332 331 326 311 299 285 273 276 282 284 288 291 283 269 255 246 242 242 243 245 238 232 242 258 264 270 295 290 299 312 284 212 213 225 260 273 283 284 280 272 248 237 241 240 234 238 248 250 250 255 265 258 256 256 252 249 247 248 251 247 243 244 243 245
289 289 290 290 290 292 293 294 296 298 300 302 304 306 308 309 310 313 314 317 318 320 322 323 327 328 319 309 275 255 287 293 287 286 286 287 281 263 250 247 245 243 245 247 243 234 234 248 269 287 308 301 296 289 262 226 249 292 303 302 298 288 283 273 255 242 236 233 219 218 244 254 249 232 259 262 259 258 250 244 244 243 247 246 242 243 245 247
289 290 290 290 291 292 291 292 293 294 295 297 299 301 302 303 305 307 308 311 312 314 316 317 323 321 311 295 235 245 288 294 290 292 289 285 281 265 254 248 246 245 244 243 245 244 235 240 257 276 286 282 301 288 247 228 261 288 314 312 287 278 273 260 251 244 233 231 219 216 257 260 240 196 247 257 255 246 240 238 238 236 242 245 243 242 242 246
289 290 290 291 291 291 291 292 292 293 293 294 295 297 299 300 301 302 304 306 307 308 309 312 317 315 307 276 251 265 287 289 287 290 286 283 277 267 261 253 249 246 243 240 244 250 245 246 250 252 257 268 301 291 239 250 281 290 306 305 281 274 268 251 243 232 220 219 206 195 282 261 222 219 247 256 251 240 234 232 232 230 236 241 243 242 241 244
289 289 289 289 290 290 291 291 291 292 292 292 292 294 296 296 298 300 300 301 303 304 305 307 310 309 295 266 272 284 289 286 285 284 281 280 274 266 260 257 253 247 244 239 238 247 249 254 252 241 252 267 279 275 277 291 287 277 259 248 275 285 268 250 239 218 203 192 175 157 278 260 222 221 243 259 250 234 231 232 230 228 233 237 242 243 242 244
289 289 290 289 289 288 288 289 290 290 290 291 291 293 295 295 297 298 298 299 300 302 303 303 304 300 272 271 287 287 279 280 280 278 278 276 271 265 258 255 253 246 243 240 239 247 251 257 257 249 254 251 252 274 289 284 249 254 268 244 250 277 269 264 233 187 181 182 169 156 253 261 260 228 236 255 243 224 223 228 230 228 233 238 241 243 244 245
288 289 290 290 290 289 289 289 289 288 288 288 289 291 293 294 295 297 298 298 298 300 301 299 297 287 263 275 286 283 276 275 271 273 276 273 267 265 258 251 250 247 243 243 243 248 253 254 247 243 254 245 244 272 293 271 241 213 250 257 226 231 259 282 216 172 174 175 172 165 235 252 271 255 241 247 231 213 215 225 228 229 235 241 244 244 245 247
289 290 290 290 291 291 291 291 291 290 289 288 288 289 290 291 292 294 295 295 297 297 296 294 288 276 261 276 280 277 273 267 267 274 277 273 263 253 251 250 249 248 244 244 246 248 248 247 239 237 247 242 222 232 266 273 264 211 199 245 237 238 260 269 227 186 172 133 182 198 224 246 258 250 221 218 209 205 213 225 230 233 239 245 248 247 247 248
291 292 292 292 292 292 292 293 293 293 292 291 290 289 289 289 289 291 292 292 292 290 287 279 274 269 257 268 273 269 267 267 273 278 276 270 252 237 242 248 247 248 247 246 248 245 237 229 223 237 239 230 213 212 242 260 260 239 210 238 240 239 257 253 285 221 185 140 194 214 233 251 252 247 225 189 194 203 213 228 240 245 248 251 253 251 250 249
292 293 293 293 294 294 294 295 296 296 295 295 295 296 294 292 291 290 288 287 283 281 279 249 223 252 258 256 256 255 263 273 280 283 279 261 242 234 231 233 239 241 242 245 245 228 216 216 200 228 248 222 213 202 206 229 237 248 239 256 262 246 250 254 279 211 189 185 211 213 231 248 255 262 262 249 227 219 223 236 249 256 257 258 256 253 253 251
292 292 293 294 294 294 295 296 297 298 297 297 299 301 300 299 295 289 282 273 257 246 266 226 197 203 255 256 253 255 265 276 281 279 271 251 235 229 217 215 221 216 215 219 225 204 190 192 191 217 249 221 208 205 212 229 239 260 266 269 274 271 265 264 274 187 180 199 219 216 230 244 251 254 258 260 251 239 239 244 249 253 257 258 256 254 254 252
291 292 293 294 294 294 294 296 297 298 298 298 301 306 311 312 302 290 269 250 243 248 258 238 213 227 249 262 265 266 270 275 277 268 264 252 228 223 214 210 210 215 222 208 192 191 182 181 200 219 238 227 213 216 224 236 244 256 266 268 266 272 272 268 276 207 183 200 218 222 232 242 251 253 252 259 259 251 248 249 250 253 256 258 257 255 253 252
295 295 296 297 296 296 294 296 298 298 300 300 303 311 317 311 295 288 280 266 264 264 261 254 242 239 246 251 253 260 267 271 271 262 263 247 215 213 204 197 198 212 220 221 221 197 184 205 219 226 239 240 232 234 238 243 246 251 255 266 268 263 267 271 279 202 185 205 232 237 246 249 254 261 259 258 258 255 253 254 254 257 260 262 261 258 257 255
302 301 303 303 301 300 298 298 299 298 301 301 302 307 295 285 281 277 286 282 273 269 263 260 252 243 244 245 248 256 258 259 257 248 249 234 207 204 191 184 200 214 197 209 227 220 212 228 231 237 248 254 254 252 254 259 259 264 265 272 273 266 275 279 277 185 179 199 241 251 257 259 261 261 260 255 250 251 254 255 255 257 261 263 263 260 259 255
309 310 311 312 309 308 306 306 303 300 301 299 297 299 290 286 283 280 282 276 274 269 258 252 246 242 243 242 245 248 242 242 244 237 241 230 202 200 197 185 208 223 197 198 212 219 226 227 231 241 249 252 256 247 245 267 264 252 252 260 266 258 264 275 248 203 204 209 240 267 267 261 263 263 259 253 250 251 254 256 257 258 258 261 262 261 258 250
313 316 318 323 321 320 320 316 312 309 306 303 299 294 287 284 279 289 288 269 270 263 255 254 244 239 242 242 245 242 234 239 239 233 238 224 196 196 208 205 214 225 220 215 218 229 238 233 219 233 240 236 246 243 234 255 258 241 227 232 252 250 246 253 245 210 221 233 237 297 287 263 240 247 254 252 249 248 248 251 255 256 257 259 261 261 256 245
314 316 321 327 328 332 333 325 324 326 318 312 310 301 295 288 268 300 311 279 261 238 245 249 236 237 240 237 239 233 232 240 232 229 232 216 196 188 204 209 212 228 229 227 233 240 245 238 212 206 223 219 229 240 220 219 257 259 215 216 239 249 252 258 276 320 310 269 213 156 284 269 205 223 248 249 230 233 236 239 245 251 254 257 258 258 252 239
311 313 318 322 327 335 337 334 332 330 325 311 309 306 299 274 240 313 343 289 267 191 176 207 211 230 229 224 221 212 232 246 226 225 222 209 201 195 194 199 207 233 226 224 243 248 240 215 196 198 218 218 224 244 219 202 257 273 227 217 240 253 259 261 276 292 264 267 229 142 280 285 253 230 247 243 202 217 227 224 236 245 250 254 258 260 253 236
309 309 312 315 324 332 335 338 331 327 322 298 300 300 263 206 178 339 11 282 266 150 133 175 183 190 195 202 196 185 228 226 204 214 205 200 202 199 209 201 199 225 201 174 258 236 177 166 164 197 216 221 229 244 222 195 237 268 265 280 262 262 260 252 251 235 237 289 271 165 148 277 278 251 219 214 202 217 229 223 234 243 246 251 258 262 256 241
307 306 307 310 317 323 327 333 337 338 319 290 287 251 203 173 165 48 35 276 265 112 121 175 177 193 180 173 181 183 209 131 161 205 195 196 197 194 222 224 217 221 170 176 239 250 129 180 198 198 198 222 227 237 211 186 215 247 70 54 78 76 334 93 210 241 286 318 272 185 151 242 277 261 186 189 194 211 224 222 229 240 242 246 254 260 257 247
303 301 300 303 308 313 319 325 338 342 321 302 265 219 175 161 165 48 228 254 265 90 116 166 171 195 161 156 190 206 229 115 141 191 184 194 196 191 235 238 243 255 212 207 232 262 69 173 214 187 185 226 216 113 39 178 211 218 131 70 79 84 29 84 215 245 347 285 251 192 161 214 274 268 191 183 202 210 218 223 226 235 241 244 249 254 252 242
300 299 294 292 296 303 310 314 323 332 324 309 244 195 161 161 159 117 231 247 359 67 113 150 168 163 151 147 213 221 215 156 96 133 160 195 201 203 273 273 262 279 261 256 260 261 181 103 32 208 195 197 130 87 30 56 164 171 130 68 59 228 56 86 228 109 44 268 250 194 181 195 270 276 170 182 200 197 204 219 222 232 242 246 248 247 243 238
295 294 288 281 283 290 294 298 309 323 322 299 218 171 157 165 131 221 229 250 8 172 125 156 183 147 165 181 208 202 202 205 132 141 169 189 196 210 248 251 206 304 297 287 272 259 222 154 137 220 179 127 100 87 34 40 65 118 109 96 356 301 18 38 282 110 199 264 248 181 184 192 233 265 128 193 197 187 195 203 207 220 237 243 244 242 239 237
289 288 286 279 276 275 274 278 293 311 312 264 187 166 156 201 235 234 232 57 40 201 146 177 185 166 192 211 216 171 171 195 163 169 194 162 179 202 208 208 165 138 272 243 239 244 236 229 207 171 160 161 148 101 38 1 343 147 132 127 104 287 308 342 245 163 218 257 246 175 180 200 235 249 240 236 205 188 201 202 202 208 222 236 239 235 231 229
284 284 282 278 274 269 265 269 276 285 291 218 180 173 145 240 234 231 210 187 231 175 118 165 175 178 191 204 218 170 172 207 164 178 204 169 198 217 215 227 207 229 256 214 226 220 253 266 190 151 262 190 174 177 210 244 189 178 160 149 167 210 249 250 241 236 239 258 264 180 176 220 262 249 205 223 222 195 202 210 211 208 215 235 239 226 217 216
278 281 278 274 273 267 262 266 264 260 250 197 181 177 197 231 243 227 182 212 241 257 70 85 157 183 198 209 196 152 180 229 159 171 198 169 201 229 212 223 221 237 269 226 265 198 244 291 184 164 207 181 181 207 211 165 162 195 174 158 190 192 217 242 235 243 259 277 273 179 169 214 253 182 191 208 218 205 199 208 215 216 224 240 237 211 205 207
269 277 275 269 264 259 257 259 256 250 218 182 174 209 209 228 249 292 252 234 240 239 246 39 162 190 220 228 193 172 208 233 165 167 198 189 204 218 201 204 206 210 196 206 258 182 230 273 196 160 151 162 180 220 207 123 96 214 150 155 229 203 196 246 260 249 270 310 270 215 218 234 244 262 222 209 221 216 204 209 213 213 227 236 224 201 206 208
269 274 269 261 256 254 254 253 250 243 211 171 154 221 221 238 260 278 302 306 269 242 199 301 223 205 239 227 192 210 219 232 180 169 206 217 227 228 208 186 192 198 193 191 228 190 227 281 165 120 28 145 171 269 196 152 217 195 143 191 229 165 166 220 276 277 267 278 270 242 248 272 298 278 239 208 218 219 208 213 209 207 225 231 217 209 217 218
272 277 270 260 258 257 252 247 243 227 196 162 170 221 229 255 273 293 332 345 321 302 212 229 216 187 236 243 209 203 192 201 191 173 191 212 225 221 213 211 191 193 203 203 221 235 225 268 247 161 313 241 2 347 322 325 107 131 177 223 242 32 103 172 256 309 270 261 273 263 263 276 287 279 233 190 205 211 207 208 201 208 223 228 221 222 228 229
274 276 272 267 264 259 250 243 232 208 177 155 214 237 247 261 266 294 338 348 331 315 272 248 217 182 227 255 245 192 171 187 184 173 205 214 214 196 191 214 196 191 207 209 222 262 216 249 266 174 271 277 38 21 299 341 68 147 213 282 94 111 230 171 174 229 246 257 275 277 278 273 256 264 276 208 203 204 206 204 199 210 221 226 226 227 232 232
277 270 267 269 264 254 246 235 212 185 160 158 217 233 250 257 259 273 294 310 315 306 285 276 272 249 249 266 279 225 179 198 195 181 205 208 223 197 175 196 205 197 205 202 208 248 203 223 252 336 342 317 15 166 178 253 304 120 349 337 89 163 183 179 187 193 217 247 272 284 286 277 251 251 248 217 197 194 198 199 199 207 217 223 226 229 231 227
276 261 261 269 263 246 234 217 188 163 148 194 212 220 235 250 256 257 266 282 302 289 290 321 330 312 300 311 314 301 216 212 214 212 213 196 226 231 180 186 203 204 207 202 205 223 185 222 236 319 359 303 255 198 175 185 208 193 232 251 215 190 157 213 251 217 202 229 248 272 279 273 264 218 212 189 183 191 190 194 204 211 219 223 225 229 230 225
268 254 254 260 258 227 209 192 167 160 172 214 216 227 234 242 255 245 245 247 238 230 231 256 279 281 293 307 311 310 299 284 271 247 235 214 229 256 187 194 208 191 188 198 207 206 175 212 224 205 199 242 244 218 194 200 204 193 201 211 207 198 184 229 248 227 201 222 226 237 266 268 267 87 134 162 175 189 182 191 209 218 223 226 225 229 234 235
252 243 251 249 239 206 193 180 164 185 183 211 221 224 221 228 246 247 244 244 245 236 223 236 243 242 248 245 251 267 273 286 292 278 284 283 248 269 7 272 245 158 136 195 225 213 164 151 235 232 219 243 260 253 226 237 241 236 226 212 207 196 190 216 233 230 215 219 228 234 255 264 271 83 89 162 180 195 191 188 199 217 225 227 226 232 241 243
238 242 254 249 236 209 195 185 198 196 197 232 229 228 220 218 237 249 243 236 231 224 216 230 234 231 234 229 231 243 243 246 253 250 268 287 271 282 321 334 337 356 178 292 313 323 90 110 240 253 260 282 289 312 349 355 12 277 266 222 205 205 210 225 230 230 227 220 233 243 247 259 276 84 96 120 125 192 194 178 182 204 213 217 226 238 246 245
250 254 250 241 230 214 202 190 205 210 227 236 236 235 229 229 234 239 241 224 209 202 214 228 229 227 229 225 228 233 230 230 231 233 248 262 260 267 281 297 310 303 213 257 77 133 226 203 212 250 272 279 275 274 290 336 23 247 250 234 227 227 232 249 261 255 245 234 238 246 251 260 267 131 140 153 157 200 222 204 208 216 225 235 243 246 246 244
266 260 244 227 212 205 208 212 215 221 221 224 234 229 225 234 230 230 236 231 218 214 222 230 223 220 223 224 236 236 228 230 236 234 240 246 258 266 265 268 273 261 219 154 118 149 204 208 193 229 247 240 244 250 248 257 61 240 250 246 244 238 234 247 258 248 243 237 237 246 256 263 265 254 231 226 222 234 244 232 225 231 242 247 247 245 241 241
260 248 234 217 204 207 219 223 223 232 220 218 230 221 222 232 229 229 233 234 229 225 227 232 213 216 223 221 236 245 237 235 234 232 239 236 243 256 252 253 256 247 236 227 82 118 157 209 219 232 239 237 243 252 256 260 239 228 232 230 232 237 234 237 244 246 250 250 245 247 255 262 268 273 271 265 258 261 266 260 243 242 248 248 246 247 246 247
253 243 221 209 206 218 235 234 231 239 227 222 218 195 219 228 232 233 227 224 230 228 228 233 213 214 223 219 230 243 239 235 229 229 242 244 244 248 242 241 242 233 225 192 153 150 144 215 234 244 248 247 251 257 263 269 266 260 258 249 238 232 228 228 234 239 247 255 253 250 257 263 264 266 269 269 266 265 269 272 269 265 267 268 264 257 254 254
248 257 245 249 230 212 230 238 240 248 246 240 230 211 227 229 227 229 221 224 229 218 210 226 219 222 230 225 228 236 234 236 230 227 236 241 243 249 246 239 231 222 215 200 173 159 175 229 230 242 252 253 258 261 259 263 266 266 269 270 264 253 237 231 238 239 240 249 259 261 260 261 260 258 264 269 270 269 270 275 279 279 278 277 270 261 261 261
260 274 271 279 291 270 280 278 265 259 258 259 253 239 242 239 232 227 217 225 232 208 204 225 221 221 229 229 230 233 228 230 232 228 228 230 232 238 240 237 230 215 201 195 179 163 185 227 224 234 248 249 251 255 252 254 260 262 262 261 263 268 263 254 251 248 246 250 256 257 255 257 262 263 263 268 275 283 284 281 282 282 280 276 270 263 267 270
258 273 297 309 306 295 295 293 286 279 262 261 261 249 253 255 252 247 229 226 237 209 203 224 230 224 227 229 230 232 229 229 237 236 229 225 223 219 226 228 221 205 185 188 192 189 204 217 215 227 246 243 241 245 243 241 245 250 253 254 255 261 262 259 258 256 254 254 252 253 255 260 263 263 265 271 278 282 282 278 277 276 275 274 271 268 271 275
257 268 289 306 305 292 288 276 259 262 249 238 246 250 255 256 257 265 261 247 249 247 226 231 237 235 234 234 232 234 234 232 238 241 239 240 234 220 219 215 204 202 192 190 191 185 201 217 211 219 240 234 230 237 239 238 240 244 251 255 252 248 247 249 251 251 250 252 254 255 256 256 257 262 269 274 272 270 269 271 271 270 270 271 271 270 272 276
268 276 282 287 280 263 274 276 264 261 254 240 245 248 255 263 267 275 278 260 251 255 257 253 251 251 247 243 239 240 240 239 243 245 245 248 248 240 236 223 207 202 185 182 191 179 190 211 209 213 238 237 226 233 237 236 240 239 236 239 241 241 243 246 251 251 247 245 249 251 248 249 255 264 270 269 265 261 259 260 262 267 272 275 276 273 271 274
Height
1550 1550 1549 1549 1548 1548 1547 1547 1547 1546 1545 1545 1544 1544 1543 1543 1542 1542 1541 1540 1540 1539 1539 1538 1538 1538 1537 1537 1536 1536 1536 1535 1535 1534 1533 1533 1533 1533 1533 1533 1533 1533 1533 1533 1533 1533 1532 1532 1532 1533 1534 1533 1533 1533 1533 1533 1533 1534 1534 1536 1536 1530 1525 1519 1516 1516 1516 1516 1515 1515 1515 1516 1516 1516 1516 1517 1517 1517 1518 1518 1517 1518 1518 1518 1517 1517 1517 1518
1550 1549 1549 1549 1548 1548 1548 1547 1547 1546 1546 1545 1544 1544 1543 1543 1542 1542 1541 1540 1540 1539 1539 1538 1538 1537 1537 1536 1536 1536 1535 1534 1534 1532 1531 1532 1532 1532 1533 1533 1533 1533 1533 1533 1533 1532 1533 1533 1533 1533 1533 1533 1532 1532 1532 1532 1533 1533 1532 1533 1531 1524 1519 1514 1513 1513 1514 1515 1515 1515 1515 1515 1515 1514 1515 1516 1515 1516 1516 1515 1516 1517 1516 1516 1515 1515 1515 1516
1549 1549 1549 1548 1548 1548 1547 1547 1546 1546 1546 1545 1544 1544 1543 1543 1542 1542 1541 1540 1540 1539 1539 1538 1537 1537 1536 1536 1535 1535 1534 1534 1532 1529 1528 1530 1531 1531 1532 1532 1532 1533 1532 1533 1532 1532 1533 1533 1533 1533 1533 1532 1531 1531 1531 1531 1531 1530 1531 1532 1526 1519 1516 1513 1512 1513 1514 1515 1514 1515 1514 1514 1515 1514 1514 1514 1513 1513 1512 1512 1513 1513 1512 1512 1512 1512 1512 1513
1549 1549 1549 1548 1548 1548 1547 1547 1546 1546 1545 1545 1544 1544 1543 1543 1542 1541 1541 1540 1540 1539 1538 1538 1537 1536 1536 1535 1535 1534 1534 1533 1529 1526 1527 1528 1529 1530 1531 1531 1532 1532 1532 1532 1532 1532 1532 1532 1533 1533 1533 1531 1530 1530 1529 1529 1529 1527 1528 1528 1521 1516 1516 1514 1513 1513 1514 1514 1515 1515 1514 1514 1514 1514 1512 1512 1513 1511 1508 1508 1509 1508 1508 1509 1509 1510 1510 1510
1549 1548 1548 1548 1548 1547 1547 1546 1546 1546 1545 1545 1544 1544 1543 1542 1542 1541 1541 1540 1540 1539 1538 1537 1537 1536 1535 1535 1535 1534 1534 1533 1527 1526 1527 1526 1528 1528 1529 1530 1531 1531 1531 1532 1531 1532 1532 1531 1532 1532 1532 1530 1529 1529 1527 1526 1526 1526 1524 1522 1518 1516 1516 1514 1513 1514 1513 1514 1515 1514 1514 1513 1513 1512 1510 1511 1511 1505 1503 1505 1505 1504 1505 1507 1507 1507 1507 1507
1548 1548 1548 1547 1547 1547 1546 1546 1546 1545 1545 1544 1544 1543 1543 1542 1542 1541 1541 1540 1539 1539 1538 1537 1536 1536 1535 1535 1534 1534 1535 1533 1527 1526 1527 1526 1527 1528 1528 1529 1529 1530 1530 1531 1531 1531 1531 1531 1531 1531 1531 1529 1528 1526 1524 1523 1524 1525 1522 1518 1517 1515 1515 1514 1513 1513 1513 1514 1514 1514 1513 1512 1512 1510 1509 1509 1505 1500 1502 1504 1503 1503 1504 1505 1504 1503 1504 1504
1547 1547 1547 1547 1547 1546 1546 1546 1545 1545 1544 1544 1543 1543 1543 1542 1541 1541 1540 1540 1539 1538 1538 1537 1536 1535 1535 1534 1533 1533 1533 1529 1526 1526 1526 1526 1527 1527 1527 1528 1528 1529 1529 1530 1530 1530 1531 1531 1531 1530 1529 1528 1526 1523 1521 1521 1523 1524 1521 1517 1515 1514 1513 1513 1513 1512 1513 1513 1512 1513 1511 1511 1510 1509 1508 1504 1498 1498 1501 1502 1502 1502 1502 1503 1502 1500 1500 1500
1546 1546 1546 1546 1546 1545 1545 1545 1544 1544 1544 1543 1543 1542 1542 1541 1541 1540 1540 1539 1538 1538 1537 1536 1535 1534 1534 1533 1532 1532 1530 1527 1525 1526 1526 1526 1526 1526 1526 1527 1527 1528 1528 1529 1529 1530 1530 1530 1530 1529 1528 1526 1524 1522 1521 1521 1522 1522 1519 1516 1514 1513 1512 1512 1512 1511 1511 1511 1511 1512 1510 1509 1508 1509 1506 1498 1495 1497 1498 1499 1500 1500 1500 1500 1499 1498 1498 1498
1545 1545 1545 1545 1544 1544 1544 1544 1544 1543 1543 1542 1542 1542 1541 1541 1540 1539 1539 1538 1538 1537 1536 1535 1535 1534 1533 1532 1532 1531 1528 1525 1525 1525 1525 1525 1524 1525 1525 1525 1526 1527 1527 1528 1528 1529 1529 1529 1529 1528 1526 1525 1523 1522 1521 1523 1522 1518 1517 1515 1514 1512 1511 1511 1510 1509 1510 1509 1510 1510 1508 1507 1507 1509 1502 1490 1492 1495 1496 1497 1497 1497 1497 1497 1497 1496 1496 1496
1544 1543 1543 1543 1543 1543 1543 1542 1542 1542 1542 1541 1541 1540 1540 1539 1539 1539 1538 1537 1537 1536 1535 1535 1534 1533 1532 1531 1532 1530 1525 1525 1525 1524 1524 1524 1523 1523 1524 1524 1525 1525 1526 1526 1527 1528 1528 1528 1527 1527 1526 1525 1523 1522 1521 1521 1520 1516 1516 1515 1514 1512 1510 1510 1509 1508 1508 1507 1508 1508 1506 1505 1506 1509 1497 1485 1489 1492 1492 1494 1493 1494 1493 1493 1494 1493 1493 1493
1542 1542 1541 1541 1541 1541 1541 1541 1541 1540 1540 1540 1539 1539 1538 1538 1538 1537 1537 1536 1536 1535 1534 1533 1533 1532 1531 1530 1531 1527 1523 1524 1524 1523 1523 1523 1522 1522 1522 1523 1524 1524 1525 1525 1525 1526 1526 1526 1526 1526 1526 1524 1523 1521 1519 1518 1517 1516 1516 1515 1513 1511 1509 1507 1506 1505 1506 1505 1505 1505 1506 1504 1505 1505 1491 1482 1487 1489 1489 1490 1490 1492 1490 1490 1491 1490 1490 1489
1540 1540 1539 1539 1539 1539 1539 1539 1539 1538 1538 1538 1538 1537 1537 1536 1536 1535 1535 1535 1534 1533 1533 1532 1531 1531 1530 1529 1527 1524 1523 1523 1522 1522 1522 1521 1521 1521 1521 1522 1522 1523 1523 1524 1524 1524 1524 1525 1525 1526 1524 1523 1522 1520 1518 1516 1517 1516 1516 1516 1512 1509 1506 1503 1501 1502 1503 1503 1502 1506 1507 1502 1500 1496 1484 1480 1486 1487 1488 1488 1488 1488 1487 1487 1487 1487 1487 1485
1538 1538 1537 1537 1537 1537 1537 1537 1536 1536 1536 1536 1535 1535 1535 1534 1534 1534 1533 1533 1532 1532 1531 1530 1530 1529 1528 1526 1522 1521 1522 1521 1521 1520 1520 1520 1520 1519 1520 1520 1521 1521 1522 1522 1522 1522 1523 1523 1524 1524 1523 1522 1521 1520 1518 1516 1517 1516 1515 1516 1513 1511 1505 1496 1495 1497 1500 1502 1500 1506 1509 1496 1488 1486 1480 1479 1483 1485 1486 1485 1485 1485 1484 1484 1483 1483 1482 1482
1535 1535 1535 1535 1535 1535 1534 1534 1534 1534 1534 1534 1533 1534 1533 1532 1532 1531 1531 1531 1530 1530 1529 1529 1528 1527 1526 1522 1519 1520 1519 1519 1519 1518 1518 1518 1517 1518 1518 1519 1519 1520 1520 1520 1521 1521 1521 1522 1522 1522 1521 1521 1519 1518 1517 1516 1516 1514 1515 1514 1512 1516 1505 1491 1490 1492 1497 1501 1498 1505 1509 1493 1480 1481 1479 1478 1480 1482 1482 1481 1482 1482 1481 1481 1479 1479 1478 1477
1534 1533 1533 1532 1532 1532 1532 1532 1532 1531 1532 1531 1531 1531 1531 1530 1530 1529 1529 1529 1528 1528 1527 1527 1526 1526 1524 1520 1517 1517 1517 1517 1516 1515 1516 1516 1515 1516 1516 1517 1518 1518 1518 1519 1519 1520 1520 1520 1521 1520 1519 1518 1518 1519 1518 1517 1514 1512 1517 1516 1510 1513 1505 1490 1488 1488 1492 1499 1498 1503 1506 1494 1480 1477 1477 1476 1477 1478 1478 1478 1479 1479 1478 1478 1476 1475 1474 1473
1532 1532 1531 1531 1530 1530 1529 1529 1529 1529 1529 1528 1529 1529 1528 1528 1527 1527 1527 1526 1526 1525 1525 1525 1524 1525 1523 1518 1515 1514 1514 1514 1514 1513 1514 1514 1514 1514 1514 1515 1516 1516 1517 1517 1518 1518 1519 1519 1519 1519 1518 1517 1518 1519 1520 1521 1515 1509 1514 1515 1509 1508 1502 1492 1489 1487 1488 1495 1497 1498 1496 1488 1479 1475 1474 1474 1474 1476 1476 1476 1476 1475 1475 1474 1473 1471 1470 1469
1531 1530 1530 1529 1528 1528 1527 1527 1526 1526 1526 1525 1525 1525 1526 1525 1524 1524 1524 1523 1523 1522 1523 1523 1522 1523 1520 1515 1513 1512 1510 1511 1512 1512 1511 1512 1512 1513 1513 1514 1515 1515 1515 1516 1517 1516 1517 1518 1517 1517 1515 1515 1515 1517 1524 1527 1520 1509 1507 1508 1505 1502 1499 1495 1491 1488 1489 1492 1495 1495 1492 1484 1477 1474 1474 1474 1475 1475 1475 1474 1473 1472 1471 1470 1469 1468 1466 1465
1529 1529 1528 1528 1527 1526 1526 1525 1525 1524 1524 1523 1522 1522 1522 1522 1522 1521 1520 1520 1520 1520 1521 1520 1522 1524 1518 1511 1510 1509 1508 1510 1510 1510 1510 1510 1511 1512 1512 1513 1514 1514 1515 1515 1515 1514 1516 1515 1515 1516 1514 1513 1513 1516 1523 1521 1512 1506 1503 1503 1501 1496 1495 1493 1488 1487 1488 1490 1492 1494 1493 1484 1477 1475 1474 1474 1475 1473 1472 1471 1470 1468 1467 1465 1465 1464 1462 1461
1527 1527 1526 1526 1525 1525 1524 1523 1523 1522 1522 1521 1520 1520 1519 1519 1518 1517 1516 1516 1516 1517 1517 1515 1515 1518 1513 1507 1507 1507 1507 1508 1508 1508 1508 1508 1509 1510 1511 1512 1513 1514 1514 1514 1513 1512 1513 1514 1515 1517 1513 1509 1508 1508 1510 1504 1500 1500 1498 1498 1498 1496 1493 1487 1484 1484 1486 1489 1491 1490 1488 1482 1476 1474 1472 1471 1471 1470 1468 1467 1466 1464 1462 1460 1460 1459 1458 1456
1525 1525 1525 1524 1523 1523 1522 1522 1521 1520 1520 1519 1519 1518 1518 1517 1516 1514 1513 1511 1510 1510 1510 1509 1508 1508 1507 1505 1505 1506 1506 1506 1506 1506 1506 1507 1508 1509 1510 1511 1512 1513 1512 1511 1511 1510 1510 1514 1515 1511 1504 1500 1500 1499 1498 1496 1495 1495 1495 1495 1494 1495 1492 1483 1481 1482 1482 1486 1486 1482 1480 1477 1472 1470 1468 1467 1467 1465 1464 1462 1461 1459 1457 1454 1454 1453 1452 1451
1524 1524 1523 1522 1522 1521 1520 1520 1519 1519 1519 1518 1518 1518 1518 1518 1517 1515 1512 1508 1506 1506 1505 1505 1505 1503 1502 1503 1503 1503 1503 1504 1503 1503 1504 1506 1507 1507 1508 1509 1511 1511 1509 1508 1509 1508 1508 1511 1508 1499 1493 1494 1495 1494 1493 1493 1492 1492 1492 1493 1493 1493 1489 1480 1480 1481 1480 1484 1482 1477 1477 1474 1469 1466 1464 1463 1463 1461 1459 1458 1456 1453 1451 1449 1448 1447 1446 1446
1523 1522 1521 1521 1520 1519 1519 1518 1517 1517 1517 1517 1517 1518 1518 1518 1517 1516 1513 1507 1502 1502 1502 1501 1502 1500 1499 1501 1500 1501 1502 1501 1500 1499 1501 1504 1504 1505 1504 1505 1507 1505 1504 1507 1508 1508 1509 1506 1498 1492 1491 1493 1492 1491 1491 1490 1490 1491 1491 1494 1495 1491 1486 1480 1479 1481 1481 1484 1482 1477 1477 1472 1466 1463 1460 1459 1457 1455 1453 1451 1450 1448 1446 1444 1442 1441 1441 1442
1521 1520 1520 1519 1518 1518 1517 1516 1516 1515 1515 1516 1516 1516 1517 1516 1516 1515 1514 1509 1498 1496 1497 1495 1496 1495 1496 1497 1496 1497 1497 1495 1495 1494 1497 1500 1500 1501 1502 1501 1502 1501 1501 1503 1504 1506 1505 1498 1491 1490 1491 1492 1491 1489 1490 1490 1490 1491 1492 1496 1495 1489 1488 1485 1482 1482 1482 1481 1480 1478 1477 1472 1467 1461 1455 1452 1449 1448 1448 1446 1444 1444 1442 1439 1435 1435 1437 1438
1519 1519 1519 1517 1517 1516 1515 1515 1514 1513 1514 1514 1514 1515 1514 1514 1515 1514 1512 1506 1494 1488 1489 1488 1489 1489 1489 1491 1491 1493 1491 1489 1490 1490 1492 1494 1495 1498 1498 1496 1498 1498 1497 1496 1495 1495 1492 1487 1487 1488 1487 1488 1489 1488 1489 1492 1491 1488 1489 1493 1490 1484 1485 1483 1479 1480 1480 1478 1477 1480 1478 1467 1460 1458 1449 1444 1443 1442 1443 1441 1440 1439 1436 1434 1431 1431 1433 1434
1518 1518 1517 1516 1516 1515 1515 1513 1512 1513 1513 1512 1513 1513 1513 1514 1514 1513 1512 1506 1490 1481 1483 1483 1484 1483 1482 1485 1486 1487 1487 1485 1485 1485 1485 1487 1490 1493 1492 1493 1495 1494 1492 1491 1491 1487 1482 1483 1485 1485 1485 1485 1487 1487 1488 1491 1490 1487 1485 1484 1482 1480 1480 1479 1478 1480 1484 1483 1478 1481 1479 1456 1443 1448 1444 1438 1440 1439 1438 1438 1436 1434 1430 1428 1427 1426 1428 1430
1517 1516 1516 1516 1515 1514 1515 1512 1512 1513 1511 1512 1512 1512 1514 1513 1513 1513 1512 1508 1489 1476 1479 1480 1479 1478 1478 1480 1480 1484 1487 1482 1479 1481 1481 1483 1485 1487 1489 1489 1488 1487 1487 1487 1487 1481 1477 1480 1480 1482 1484 1484 1487 1488 1486 1487 1490 1489 1482 1477 1478 1478 1479 1480 1480 1484 1488 1485 1477 1478 1482 1462 1439 1440 1441 1436 1437 1435 1434 1435 1433 1431 1427 1423 1423 1422 1424 1426
1515 1516 1515 1515 1514 1514 1514 1513 1513 1512 1511 1512 1511 1512 1513 1511 1514 1513 1511 1512 1489 1469 1474 1477 1475 1475 1474 1475 1476 1482 1486 1478 1475 1478 1478 1481 1483 1484 1486 1484 1483 1483 1482 1486 1488 1477 1473 1478 1480 1481 1483 1484 1487 1486 1481 1484 1490 1486 1479 1478 1478 1478 1481 1481 1482 1487 1485 1481 1478 1475 1482 1478 1449 1433 1434 1432 1434 1435 1432 1433 1430 1427 1424 1420 1419 1419 1419 1422
1514 1515 1514 1514 1514 1513 1513 1513 1512 1511 1511 1511 1510 1513 1512 1511 1515 1511 1516 1519 1485 1462 1471 1474 1473 1474 1473 1475 1475 1476 1478 1473 1474 1477 1476 1480 1482 1483 1483 1478 1479 1480 1478 1485 1487 1475 1470 1477 1478 1478 1483 1485 1482 1480 1477 1481 1485 1481 1479 1480 1479 1480 1482 1481 1483 1486 1484 1484 1484 1474 1479 1484 1452 1425 1427 1427 1430 1434 1429 1428 1427 1422 1421 1418 1417 1416 1417 1419
1513 1513 1513 1513 1513 1513 1513 1512 1512 1511 1511 1510 1510 1511 1510 1513 1514 1510 1522 1517 1474 1458 1471 1471 1472 1474 1472 1475 1475 1473 1474 1473 1475 1476 1476 1479 1480 1481 1481 1478 1478 1479 1478 1479 1478 1473 1473 1476 1475 1476 1481 1480 1475 1477 1478 1479 1479 1479 1480 1480 1480 1482 1481 1484 1485 1486 1490 1488 1481 1473 1477 1482 1450 1418 1425 1430 1427 1430 1425 1422 1421 1418 1417 1415 1414 1415 1415 1416
1512 1512 1512 1512 1511 1512 1512 1511 1512 1511 1510 1510 1510 1510 1511 1513 1512 1516 1524 1502 1467 1463 1472 1470 1471 1472 1472 1476 1476 1473 1473 1474 1474 1476 1478 1479 1479 1480 1480 1479 1480 1480 1479 1478 1475 1473 1474 1475 1476 1475 1474 1473 1474 1479 1480 1480 1479 1479 1481 1481 1483 1484 1483 1487 1485 1486 1495 1482 1466 1465 1468 1476 1455 1417 1416 1424 1418 1419 1419 1418 1418 1415 1414 1412 1411 1413 1413 1413
1510 1510 1510 1509 1510 1510 1511 1511 1511 1510 1510 1510 1510 1511 1513 1512 1513 1517 1507 1480 1466 1468 1469 1470 1471 1469 1471 1472 1471 1472 1473 1474 1474 1476 1478 1479 1479 1481 1481 1480 1482 1484 1484 1482 1477 1473 1474 1476 1475 1471 1470 1471 1474 1478 1480 1481 1481 1480 1482 1482 1485 1486 1485 1490 1489 1492 1499 1474 1450 1452 1457 1468 1457 1419 1408 1412 1406 1408 1412 1412 1413 1412 1410 1408 1408 1409 1409 1410
1508 1507 1507 1507 1507 1508 1509 1510 1510 1510 1510 1509 1511 1512 1512 1515 1513 1502 1483 1470 1469 1466 1462 1466 1467 1466 1468 1467 1466 1469 1472 1473 1473 1474 1474 1477 1479 1478 1477 1476 1478 1483 1484 1482 1477 1473 1472 1469 1467 1468 1469 1470 1472 1477 1481 1482 1481 1481 1483 1485 1491 1492 1489 1493 1493 1492 1491 1466 1443 1445 1454 1456 1437 1411 1410 1410 1404 1406 1407 1406 1407 1405 1406 1404 1404 1405 1405 1407
1505 1505 1504 1504 1504 1505 1506 1508 1509 1510 1509 1509 1512 1510 1513 1518 1501 1477 1471 1472 1466 1460 1457 1460 1461 1463 1465 1466 1467 1467 1469 1470 1470 1472 1472 1474 1476 1474 1474 1473 1472 1475 1474 1473 1475 1475 1470 1462 1462 1470 1468 1464 1467 1472 1476 1475 1477 1480 1478 1482 1490 1491 1492 1493 1487 1481 1474 1457 1443 1446 1454 1446 1422 1407 1408 1406 1403 1403 1401 1403 1403 1400 1402 1402 1400 1402 1403 1404
1501 1502 1501 1500 1501 1503 1503 1505 1506 1507 1508 1509 1511 1512 1516 1513 1484 1462 1468 1470 1461 1458 1459 1459 1460 1463 1463 1464 1463 1462 1467 1467 1465 1469 1471 1472 1477 1475 1472 1471 1470 1470 1469 1472 1472 1472 1473 1461 1455 1461 1458 1455 1458 1457 1457 1460 1468 1472 1467 1471 1477 1476 1479 1480 1473 1467 1461 1453 1446 1450 1451 1436 1417 1405 1398 1396 1397 1397 1397 1399 1399 1398 1399 1399 1399 1400 1401 1402
1497 1497 1498 1497 1498 1499 1501 1503 1503 1505 1507 1507 1510 1513 1510 1496 1475 1468 1470 1465 1460 1460 1459 1460 1462 1464 1464 1463 1461 1458 1462 1463 1462 1467 1469 1469 1471 1468 1464 1464 1466 1467 1470 1476 1469 1464 1469 1456 1443 1449 1448 1448 1452 1449 1449 1455 1464 1466 1463 1468 1470 1463 1463 1465 1460 1455 1458 1461 1450 1446 1440 1418 1404 1396 1390 1393 1394 1392 1395 1394 1394 1397 1396 1396 1397 1397 1399 1400
1493 1493 1494 1493 1493 1496 1498 1500 1501 1503 1504 1505 1512 1513 1498 1479 1471 1472 1468 1463 1462 1459 1460 1464 1463 1465 1466 1462 1462 1460 1459 1460 1462 1465 1467 1466 1462 1458 1456 1455 1457 1460 1462 1466 1462 1458 1463 1453 1444 1450 1450 1449 1453 1450 1451 1455 1457 1461 1464 1465 1460 1454 1455 1462 1462 1453 1459 1467 1445 1430 1427 1411 1401 1392 1382 1389 1393 1390 1394 1393 1392 1395 1392 1392 1394 1394 1397 1397
1490 1490 1490 1488 1488 1492 1495 1496 1498 1501 1502 1505 1511 1506 1489 1476 1472 1470 1466 1465 1464 1459 1461 1466 1463 1463 1465 1460 1459 1459 1459 1460 1461 1463 1464 1462 1455 1449 1450 1449 1447 1450 1450 1452 1452 1450 1453 1450 1447 1451 1452 1452 1454 1453 1453 1453 1453 1458 1463 1458 1452 1454 1455 1459 1467 1462 1464 1467 1439 1420 1422 1416 1410 1397 1378 1383 1391 1388 1390 1390 1390 1391 1388 1389 1391 1392 1394 1394
1487 1487 1486 1483 1485 1488 1491 1494 1495 1497 1501 1505 1507 1499 1486 1478 1473 1471 1469 1469 1468 1463 1463 1466 1460 1457 1459 1459 1455 1455 1459 1459 1458 1461 1460 1456 1447 1438 1441 1443 1440 1441 1442 1445 1449 1445 1446 1450 1450 1453 1455 1453 1453 1453 1454 1454 1454 1455 1456 1454 1453 1459 1459 1458 1466 1467 1465 1465 1441 1421 1419 1411 1402 1392 1380 1384 1388 1384 1385 1386 1387 1387 1386 1387 1388 1389 1391 1391
1485 1485 1481 1478 1481 1484 1487 1490 1491 1494 1499 1502 1503 1496 1484 1477 1473 1472 1473 1472 1472 1470 1466 1463 1460 1456 1455 1456 1453 1452 1456 1456 1454 1457 1455 1450 1443 1432 1432 1436 1436 1437 1437 1440 1445 1442 1443 1448 1449 1454 1458 1456 1454 1454 1454 1454 1457 1457 1458 1458 1454 1455 1455 1453 1456 1454 1453 1456 1444 1430 1420 1398 1382 1378 1375 1379 1380 1379 1381 1382 1383 1384 1383 1385 1386 1386 1388 1389
1483 1482 1478 1475 1478 1481 1485 1487 1488 1492 1495 1495 1494 1488 1480 1475 1473 1473 1474 1474 1473 1473 1470 1468 1468 1466 1461 1459 1458 1453 1453 1451 1449 1452 1449 1443 1439 1432 1430 1430 1432 1434 1433 1436 1439 1439 1443 1446 1446 1454 1461 1457 1450 1448 1447 1445 1448 1455 1459 1459 1455 1453 1453 1452 1449 1442 1441 1446 1444 1442 1426 1388 1367 1369 1368 1371 1376 1376 1379 1380 1381 1381 1380 1381 1383 1383 1386 1387
1481 1479 1475 1473 1476 1479 1483 1486 1486 1488 1491 1489 1485 1479 1475 1473 1471 1470 1471 1472 1471 1470 1471 1471 1472 1474 1472 1472 1469 1462 1459 1456 1450 1448 1444 1439 1438 1435 1431 1428 1429 1431 1433 1437 1438 1438 1442 1443 1442 1449 1454 1449 1439 1436 1436 1432 1431 1438 1443 1443 1444 1446 1449 1453 1450 1436 1433 1437 1433 1438 1428 1384 1362 1368 1368 1370 1377 1375 1376 1379 1380 1381 1380 1379 1381 1382 1385 1386
1478 1475 1471 1471 1473 1476 1480 1481 1481 1482 1483 1479 1474 1471 1472 1471 1468 1466 1466 1468 1469 1467 1468 1468 1467 1468 1469 1471 1470 1467 1467 1466 1460 1454 1446 1439 1437 1435 1432 1430 1429 1429 1432 1436 1435 1433 1435 1439 1441 1441 1439 1436 1433 1432 1433 1430 1427 1430 1432 1431 1433 1437 1439 1442 1440 1430 1430 1432 1425 1430 1424 1383 1360 1369 1371 1371 1375 1372 1373 1375 1377 1380 1379 1379 1382 1382 1383 1384
1474 1472 1470 1470 1471 1472 1474 1475 1475 1476 1472 1468 1465 1466 1468 1467 1465 1463 1462 1464 1465 1465 1464 1463 1461 1460 1459 1460 1461 1463 1465 1463 1459 1456 1451 1445 1439 1435 1433 1433 1432 1431 1431 1433 1433 1433 1435 1439 1442 1441 1435 1431 1431 1432 1433 1433 1433 1432 1430 1429 1429 1430 1429 1427 1427 1423 1422 1424 1422 1426 1418 1385 1366 1370 1371 1371 1374 1374 1374 1374 1375 1377 1377 1379 1381 1381 1381 1381
1470 1469 1469 1468 1468 1469 1467 1466 1468 1469 1467 1465 1464 1464 1464 1463 1461 1460 1458 1458 1460 1460 1459 1456 1454 1453 1452 1453 1454 1455 1456 1455 1451 1448 1448 1446 1439 1434 1433 1433 1434 1434 1433 1433 1434 1436 1438 1439 1440 1445 1446 1443 1439 1436 1432 1433 1436 1434 1429 1427 1425 1424 1425 1424 1424 1423 1421 1419 1416 1414 1405 1385 1371 1371 1370 1371 1373 1374 1375 1375 1374 1375 1376 1378 1378 1378 1379 1378
1469 1467 1465 1464 1465 1463 1458 1456 1458 1459 1460 1463 1462 1460 1460 1458 1455 1453 1452 1451 1452 1454 1452 1449 1448 1448 1449 1450 1450 1448 1448 1448 1447 1444 1444 1444 1438 1432 1432 1432 1433 1433 1432 1432 1432 1433 1437 1436 1436 1444 1450 1450 1446 1439 1430 1429 1434 1434 1429 1426 1424 1424 1425 1425 1425 1426 1423 1416 1408 1403 1397 1384 1373 1371 1371 1371 1372 1373 1373 1374 1373 1374 1374 1374 1375 1376 1376 1374
1467 1463 1460 1460 1460 1456 1451 1451 1452 1450 1452 1456 1455 1454 1455 1452 1447 1445 1444 1444 1445 1445 1444 1443 1445 1447 1447 1447 1447 1445 1443 1443 1444 1444 1443 1441 1436 1430 1428 1428 1430 1430 1429 1431 1432 1432 1435 1434 1432 1434 1436 1436 1435 1429 1425 1425 1429 1430 1427 1424 1424 1423 1423 1424 1426 1425 1420 1413 1405 1399 1395 1388 1379 1375 1371 1368 1370 1371 1370 1370 1371 1372 1371 1372 1373 1373 1371 1369
1464 1459 1456 1456 1456 1453 1450 1449 1448 1445 1445 1446 1444 1443 1445 1444 1442 1441 1440 1439 1438 1439 1440 1441 1443 1443 1442 1443 1443 1441 1438 1438 1440 1441 1438 1435 1431 1426 1426 1426 1428 1428 1428 1429 1430 1431 1434 1433 1430 1430 1427 1424 1424 1421 1420 1421 1420 1420 1421 1421 1422 1422 1421 1423 1423 1418 1415 1412 1403 1396 1394 1390 1384 1378 1369 1361 1363 1367 1367 1365 1366 1368 1368 1368 1369 1369 1367 1365
1461 1456 1452 1453 1452 1450 1448 1446 1445 1443 1442 1442 1437 1434 1434 1436 1438 1438 1436 1433 1431 1434 1438 1438 1437 1436 1434 1435 1436 1434 1433 1435 1436 1435 1433 1429 1426 1424 1425 1425 1424 1424 1425 1426 1427 1428 1429 1428 1428 1429 1427 1423 1422 1420 1418 1417 1415 1414 1416 1416 1415 1416 1418 1420 1417 1410 1408 1406 1399 1395 1394 1386 1378 1375 1367 1357 1356 1362 1364 1363 1361 1362 1363 1363 1364 1365 1362 1360
1459 1455 1452 1451 1449 1446 1445 1444 1443 1442 1442 1442 1438 1433 1432 1430 1429 1429 1429 1429 1428 1429 1432 1430 1428 1428 1426 1426 1428 1427 1428 1429 1428 1425 1422 1420 1420 1421 1423 1421 1419 1420 1421 1423 1425 1426 1425 1424 1425 1426 1426 1425 1423 1420 1418 1417 1415 1413 1413 1413 1411 1411 1413 1412 1407 1401 1400 1398 1393 1392 1389 1379 1373 1370 1365 1357 1355 1359 1361 1359 1357 1356 1355 1355 1358 1359 1356 1355
1458 1455 1453 1452 1449 1446 1444 1443 1444 1443 1442 1442 1439 1434 1432 1429 1426 1424 1424 1425 1424 1423 1425 1423 1420 1420 1419 1419 1421 1420 1419 1419 1416 1412 1410 1412 1415 1417 1416 1413 1413 1416 1418 1418 1421 1423 1422 1420 1420 1423 1426 1422 1419 1417 1415 1415 1414 1410 1408 1408 1409 1409 1406 1401 1397 1394 1395 1394 1389 1387 1387 1381 1371 1364 1360 1359 1360 1359 1357 1354 1352 1351 1348 1348 1350 1352 1350 1350
1456 1455 1456 1455 1450 1447 1444 1441 1442 1442 1440 1439 1436 1432 1430 1429 1426 1425 1422 1420 1420 1420 1419 1418 1415 1415 1414 1414 1414 1413 1411 1410 1406 1402 1402 1405 1408 1409 1407 1405 1405 1410 1415 1416 1416 1419 1422 1418 1417 1422 1421 1413 1409 1409 1407 1407 1410 1409 1408 1406 1403 1399 1394 1389 1387 1386 1388 1387 1384 1385 1386 1377 1364 1358 1359 1361 1359 1357 1353 1348 1345 1344 1342 1342 1344 1346 1347 1346
1455 1454 1455 1455 1450 1445 1443 1441 1441 1439 1435 1433 1432 1429 1427 1426 1425 1426 1423 1417 1416 1418 1418 1417 1416 1415 1412 1411 1409 1407 1405 1403 1400 1397 1398 1398 1398 1398 1401 1402 1401 1404 1410 1413 1413 1416 1417 1415 1414 1416 1411 1402 1400 1399 1399 1404 1408 1405 1400 1393 1385 1382 1383 1382 1379 1376 1374 1375 1377 1376 1370 1361 1356 1358 1359 1355 1350 1347 1345 1341 1339 1339 1337 1335 1337 1341 1343 1342